Location: Bieujac
(44.5398°N, 0.1549°W)
Time: 11:30:59
(UTC+00:00)

Cosmos 158 Rocket - Pass Details

Date: 17 November 2019
Orbit: 699 x 792 km, 74.0° (Epoch: 11 December)

Event Time Altitude Azimuth Distance (km) Brightness Sun altitude
Exits shadow 04:34:13 59° 360° (N) 819 4.0 -25.7°
Maximum altitude 04:35:06 78° 69° (ENE) 728 3.9 -25.5°
Drops below altitude 10° 04:39:58 10° 155° (SSE) 2,160 6.6 -24.7°
Sets 04:42:16 0° 157° (SSE) 3,070 7.5 -24.3°
